EW9778 Weather Reports


time (UTC)temp
C
wind
direction
speed
KPH
gust
KPH
rain 1hr
cm
rain 24hr
cm
rain mn
cm
humidity
%
barometer
mb
20260506160017 26 204 1.6 8.0 0.00 0.00 0.00 84 1009.0
20260506154515 26 193 1.6 8.0 0.00 0.00 0.00 84 1009.0
20260506153012 26 200 0.0 6.4 0.00 0.00 0.00 84 1008.9
20260506151510 26 202 4.8 12.9 0.00 0.00 0.00 84 1008.5
20260506150007 26 196 3.2 9.7 0.00 0.00 0.00 85 1008.4
20260506144506 26 201 4.8 12.9 0.00 0.00 0.00 85 1008.2
20260506143005 26 207 3.2 11.3 0.00 0.00 0.00 86 1008.0
20260506141503 25 203 1.6 11.3 0.00 0.00 0.00 88 1008.0
20260506140002 25 219 1.6 8.0 0.00 0.00 0.00 89 1008.2
20260506134502 25 172 0.0 8.0 0.00 0.00 0.00 90 1008.2
20260506133032 25 186 3.2 6.4 0.00 0.00 0.00 90 1008.3
20260506131534 24 184 1.6 11.3 0.00 0.00 0.00 90 1008.3
20260506130003 24 188 0.0 9.7 0.00 0.00 0.00 91 1008.5
20260506124600 24 205 0.0 4.8 0.00 0.00 0.00 91 1008.4
20260506123033 24 203 0.0 8.0 0.00 0.00 0.00 91 1008.3
20260506121529 24 200 0.0 9.7 0.00 0.00 0.00 91 1008.1
20260506120038 23 200 0.0 8.0 0.00 0.00 0.00 91 1007.9
20260506114525 23 195 0.0 8.0 0.00 0.00 0.00 91 1007.7
20260506113030 23 199 1.6 8.0 0.00 0.00 0.00 91 1007.5
20260506111523 23 206 0.0 6.4 0.00 0.00 0.00 91 1007.3
20260506110021 23 206 1.6 6.4 0.00 0.00 0.00 91 1007.1
20260506104520 23 214 1.6 6.4 0.00 0.00 0.00 90 1007.0
20260506103019 23 213 0.0 6.4 0.00 0.00 0.00 90 1007.1
20260506101517 23 187 0.0 11.3 0.00 0.00 0.00 90 1007.0
20260506100016 23 187 3.2 8.0 0.00 0.00 0.00 90 1007.0
20260506094518 23 201 3.2 11.3 0.00 0.00 0.00 90 1006.7
20260506093013 23 205 1.6 11.3 0.00 0.00 0.00 89 1006.8
20260506091516 24 211 3.2 16.1 0.00 0.00 0.00 88 1006.8
20260506090048 24 207 3.2 11.3 0.00 0.00 0.00 88 1007.0
20260506084553 24 209 3.2 9.7 0.00 0.00 0.00 88 1007.0
20260506083038 24 224 4.8 12.9 0.00 0.00 0.00 88 1007.1
20260506081540 24 206 1.6 11.3 0.00 0.00 0.00 88 1007.2
20260506073005 25 207 3.2 12.9 0.00 0.00 0.00 87 1007.7
20260506071504 25 205 4.8 12.9 0.00 0.00 0.00 87 1007.6
20260506061603 25 198 3.2 9.7 0.00 0.00 0.00 86 1008.1
20260506050107 25 209 3.2 14.5 0.00 0.00 0.00 86 1008.1
20260506044552 25 198 3.2 9.7 0.00 0.00 0.00 86 1008.0
20260506043054 25 209 1.6 8.0 0.00 0.00 0.00 86 1007.9
20260506041548 25 220 3.2 16.1 0.00 0.00 0.00 85 1007.8
20260506040051 25 194 4.8 11.3 0.00 0.00 0.00 85 1008.0
20260506034517 25 198 4.8 16.1 0.00 0.00 0.00 84 1007.8
20260506033018 25 213 6.4 17.7 0.00 0.00 0.00 84 1007.3
20260506031513 25 194 6.4 14.5 0.00 0.00 0.00 84 1007.3
20260506030018 25 187 4.8 14.5 0.00 0.00 0.00 83 1007.2
20260506024531 25 192 8.0 19.3 0.00 0.00 0.00 83 1007.0
20260506023011 25 194 6.4 12.9 0.00 0.00 0.00 82 1006.8
20260506021509 26 205 6.4 12.9 0.00 0.00 0.00 82 1006.6
20260506020010 26 211 8.0 16.1 0.00 0.00 0.00 81 1006.5
20260506014509 26 182 6.4 17.7 0.00 0.00 0.00 81 1006.2
20260506013007 26 194 4.8 12.9 0.00 0.00 0.00 80 1006.0
20260506011506 26 196 4.8 16.1 0.00 0.00 0.00 80 1005.8
20260506010007 26 196 4.8 12.9 0.00 0.00 0.00 79 1005.6
20260506004506 26 194 4.8 14.5 0.00 0.00 0.00 79 1005.6
20260506003003 26 182 3.2 20.9 0.00 0.00 0.00 78 1005.4
20260506001538 26 184 8.0 22.5 0.00 0.00 0.00 78 1005.4
20260506000038 26 247 8.0 17.7 0.00 0.00 0.00 78 1005.4
20260505234530 27 203 8.0 16.1 0.00 0.00 0.00 78 1005.2
20260505233029 27 163 8.0 19.3 0.00 0.00 0.00 78 1005.3
20260505231533 27 170 8.0 14.5 0.00 0.00 0.00 78 1005.3
20260505230035 27 195 8.0 16.1 0.00 0.00 0.00 77 1005.4
20260505224525 27 211 9.7 20.9 0.00 0.00 0.00 76 1005.3
20260505223030 27 197 8.0 20.9 0.00 0.00 0.00 77 1005.4
20260505221525 27 191 3.2 16.1 0.00 0.00 0.00 76 1005.4
20260505220021 28 190 6.4 17.7 0.00 0.00 0.00 75 1005.6
20260505214524 28 200 4.8 16.1 0.00 0.00 0.00 75 1005.7
20260505213019 28 193 3.2 14.5 0.00 0.00 0.00 75 1005.9
20260505211515 28 223 8.0 17.7 0.00 0.00 0.00 75 1006.0
20260505210014 28 198 6.4 19.3 0.00 0.00 0.00 76 1006.1
20260505204508 28 196 4.8 16.1 0.00 0.00 0.00 76 1006.3
20260505203007 28 218 4.8 17.7 0.00 0.00 0.00 75 1006.6
20260505201511 28 210 4.8 16.1 0.00 0.00 0.00 75 1006.9
20260505200003 27 232 4.8 16.1 0.00 0.00 0.00 76 1006.9
20260505194533 27 221 4.8 14.5 0.00 0.00 0.00 76 1007.2
20260505193034 27 199 8.0 20.9 0.00 0.00 0.00 76 1007.3
20260505191523 27 214 6.4 12.9 0.00 0.00 0.00 78 1007.4
20260505190027 27 175 4.8 22.5 0.00 0.00 0.00 78 1007.5
20260505184521 27 228 8.0 16.1 0.00 0.00 0.00 79 1007.6
20260505183027 26 300 4.8 17.7 0.00 0.00 0.00 78 1007.7
20260505181550 26 202 3.2 14.5 0.00 0.00 0.00 79 1007.7
20260505180050 26 185 4.8 17.7 0.00 0.00 0.00 80 1007.9
20260505174514 26 167 4.8 14.5 0.00 0.00 0.00 79 1008.1
20260505173013 26 193 4.8 19.3 0.00 0.00 0.00 80 1008.2
20260505171508 26 218 6.4 17.7 0.00 0.00 0.00 80 1008.2
20260505170008 25 219 4.8 12.9 0.00 0.00 0.00 81 1008.4
20260505164506 25 202 1.6 22.5 0.00 0.00 0.00 82 1008.4
20260505163009 25 174 6.4 14.5 0.00 0.00 0.00 81 1008.2
20260505161608 25 208 4.8 11.3 0.00 0.00 0.00 81 1008.2